Hourly Weather Lukomo

Today, 7 May, Friday

Time Temperature Precipitation Wind Pressure Humidity
00:00 +3°C° 0 mm 5 mps 744 mmHg 89%
01:00 +3°C° 0 mm 5 mps 745 mmHg 87%
02:00 +2°C° 0 mm 5 mps 745 mmHg 86%
03:00 +2°C° 0 mm 5 mps 745 mmHg 86%
04:00 +2°C° 0 mm 5 mps 745 mmHg 85%
05:00 +2°C° 0 mm 5 mps 745 mmHg 84%
06:00 +3°C° 0 mm 5 mps 746 mmHg 81%
07:00 +3°C° 0 mm 5 mps 746 mmHg 78%
08:00 +5°C° 0 mm 5 mps 746 mmHg 74%
09:00 +6°C° 0.1 mm 5 mps 746 mmHg 74%
10:00 +6°C° 0.1 mm 5 mps 747 mmHg 73%
11:00 +7°C° 0.1 mm 5 mps 747 mmHg 72%
12:00 +8°C° 0.1 mm 5 mps 747 mmHg 67%
13:00 +8°C° 0.1 mm 5 mps 747 mmHg 62%
14:00 +9°C° 0.1 mm 5 mps 748 mmHg 56%
15:00 +10°C° 0.1 mm 4 mps 747 mmHg 58%
16:00 +10°C° 0.1 mm 3 mps 747 mmHg 59%
17:00 +10°C° 0.1 mm 3 mps 747 mmHg 60%
18:00 +9°C° 0 mm 2 mps 747 mmHg 65%
19:00 +8°C° 0 mm 1 mps 747 mmHg 71%
20:00 +6°C° 0 mm 0 mps 747 mmHg 76%
21:00 +6°C° 0.1 mm 0 mps 747 mmHg 80%
22:00 +7°C° 0.1 mm 1 mps 747 mmHg 84%
23:00 +6°C° 0.1 mm 1 mps 747 mmHg 88%

Tomorrow, 8 May, Saturday

Time Temperature Precipitation Wind Pressure Humidity
00:00 +6°C° 0.4 mm 1 mps 747 mmHg 90%
01:00 +6°C° 0.4 mm 1 mps 747 mmHg 92%
02:00 +6°C° 0.4 mm 1 mps 746 mmHg 95%
03:00 +6°C° 0.3 mm 1 mps 746 mmHg 95%
04:00 +6°C° 0.3 mm 1 mps 746 mmHg 95%
05:00 +5°C° 0.3 mm 2 mps 746 mmHg 96%
06:00 +5°C° 0.1 mm 2 mps 747 mmHg 94%
07:00 +5°C° 0.1 mm 2 mps 747 mmHg 92%
08:00 +6°C° 0.1 mm 2 mps 747 mmHg 90%
09:00 +6°C° 0.1 mm 2 mps 747 mmHg 90%
10:00 +5°C° 0.1 mm 3 mps 747 mmHg 89%
11:00 +5°C° 0.1 mm 3 mps 748 mmHg 88%
12:00 +6°C° 0.1 mm 4 mps 748 mmHg 82%
13:00 +6°C° 0.1 mm 4 mps 748 mmHg 76%
14:00 +7°C° 0.1 mm 4 mps 748 mmHg 70%
15:00 +7°C° 0.1 mm 4 mps 749 mmHg 68%
16:00 +7°C° 0.1 mm 4 mps 749 mmHg 66%
17:00 +6°C° 0.1 mm 4 mps 749 mmHg 64%
18:00 +5°C° 0 mm 3 mps 750 mmHg 69%
19:00 +4°C° 0 mm 3 mps 750 mmHg 74%
20:00 +3°C° 0 mm 3 mps 751 mmHg 79%
21:00 +2°C° 0 mm 3 mps 751 mmHg 82%
22:00 +1°C° 0 mm 3 mps 752 mmHg 86%
23:00 +1°C° 0 mm 3 mps 752 mmHg 89%

Day after tomorrow, 9 May, Sunday

Time Temperature Precipitation Wind Pressure Humidity
00:00 0°C° 0 mm 3 mps 753 mmHg 88%
01:00 0°C° 0 mm 3 mps 753 mmHg 87%
02:00 0°C° 0 mm 3 mps 754 mmHg 86%
03:00 0°C° 0 mm 3 mps 754 mmHg 87%
04:00 0°C° 0 mm 3 mps 755 mmHg 87%
05:00 0°C° 0 mm 3 mps 755 mmHg 88%
06:00 +2°C° 0 mm 3 mps 756 mmHg 77%
07:00 +4°C° 0 mm 3 mps 756 mmHg 67%
08:00 +6°C° 0 mm 4 mps 757 mmHg 56%
09:00 +7°C° 0 mm 4 mps 757 mmHg 52%
10:00 +10°C° 0 mm 4 mps 758 mmHg 48%
11:00 +11°C° 0 mm 4 mps 758 mmHg 44%
12:00 +12°C° 0 mm 4 mps 758 mmHg 42%
13:00 +12°C° 0 mm 4 mps 758 mmHg 40%
14:00 +13°C° 0 mm 4 mps 759 mmHg 38%
15:00 +12°C° 0 mm 4 mps 759 mmHg 41%
16:00 +12°C° 0 mm 3 mps 759 mmHg 44%
17:00 +12°C° 0 mm 3 mps 759 mmHg 47%
18:00 +11°C° 0 mm 3 mps 759 mmHg 53%
19:00 +9°C° 0 mm 2 mps 759 mmHg 60%
20:00 +8°C° 0 mm 2 mps 760 mmHg 67%
21:00 +7°C° 0 mm 2 mps 760 mmHg 69%
22:00 +7°C° 0 mm 3 mps 760 mmHg 70%
23:00 +7°C° 0 mm 3 mps 760 mmHg 72%

10 May, Monday

Time Temperature Precipitation Wind Pressure Humidity
00:00 +7°C° 0.3 mm 3 mps 760 mmHg 78%
01:00 +6°C° 0.3 mm 4 mps 760 mmHg 83%
02:00 +6°C° 0.3 mm 4 mps 760 mmHg 89%
03:00 +6°C° 0.1 mm 4 mps 760 mmHg 87%
04:00 +6°C° 0.1 mm 4 mps 760 mmHg 85%
05:00 +7°C° 0.1 mm 4 mps 760 mmHg 83%
06:00 +8°C° 0 mm 4 mps 760 mmHg 79%
07:00 +10°C° 0 mm 4 mps 761 mmHg 75%
08:00 +12°C° 0 mm 4 mps 761 mmHg 71%
09:00 +13°C° 0 mm 4 mps 761 mmHg 66%
10:00 +15°C° 0 mm 5 mps 762 mmHg 61%
11:00 +16°C° 0 mm 5 mps 762 mmHg 56%
12:00 +17°C° 0 mm 5 mps 762 mmHg 54%
13:00 +19°C° 0 mm 5 mps 762 mmHg 51%
14:00 +20°C° 0 mm 5 mps 762 mmHg 49%
15:00 +20°C° 0 mm 4 mps 762 mmHg 51%
16:00 +20°C° 0 mm 4 mps 762 mmHg 54%
17:00 +20°C° 0 mm 4 mps 762 mmHg 57%
18:00 +18°C° 0 mm 3 mps 762 mmHg 66%
19:00 +16°C° 0 mm 3 mps 763 mmHg 74%
20:00 +14°C° 0 mm 2 mps 763 mmHg 83%
21:00 +13°C° 0 mm 2 mps 763 mmHg 83%
22:00 +11°C° 0 mm 3 mps 763 mmHg 84%
23:00 +11°C° 0 mm 3 mps 764 mmHg 85%

11 May, Tuesday

Time Temperature Precipitation Wind Pressure Humidity
00:00 +10°C° 0 mm 3 mps 764 mmHg 85%
01:00 +10°C° 0 mm 3 mps 764 mmHg 85%
02:00 +10°C° 0 mm 3 mps 764 mmHg 85%
03:00 +10°C° 0 mm 3 mps 764 mmHg 84%
04:00 +10°C° 0 mm 3 mps 764 mmHg 83%
05:00 +10°C° 0 mm 3 mps 764 mmHg 82%
06:00 +11°C° 0 mm 4 mps 764 mmHg 76%
07:00 +13°C° 0 mm 4 mps 764 mmHg 69%
08:00 +14°C° 0 mm 4 mps 764 mmHg 62%
09:00 +17°C° 0 mm 4 mps 764 mmHg 57%
10:00 +17°C° 0 mm 5 mps 764 mmHg 52%
11:00 +20°C° 0 mm 5 mps 764 mmHg 46%
12:00 +20°C° 0 mm 5 mps 763 mmHg 45%
13:00 +21°C° 0 mm 5 mps 763 mmHg 43%
14:00 +22°C° 0 mm 5 mps 763 mmHg 42%
15:00 +21°C° 0 mm 4 mps 763 mmHg 45%
16:00 +21°C° 0 mm 4 mps 763 mmHg 48%
17:00 +21°C° 0 mm 4 mps 763 mmHg 51%
18:00 +18°C° 0 mm 3 mps 763 mmHg 60%
19:00 +16°C° 0 mm 3 mps 763 mmHg 69%
20:00 +14°C° 0 mm 2 mps 763 mmHg 78%
21:00 +13°C° 0 mm 2 mps 763 mmHg 81%
22:00 +13°C° 0 mm 2 mps 763 mmHg 84%
23:00 +12°C° 0 mm 2 mps 763 mmHg 87%

12 May, Wednesday

Time Temperature Precipitation Wind Pressure Humidity
00:00 +12°C° 0 mm 2 mps 763 mmHg 90%
01:00 +10°C° 0 mm 2 mps 763 mmHg 92%
02:00 +10°C° 0 mm 2 mps 763 mmHg 94%
03:00 +10°C° 0 mm 2 mps 763 mmHg 94%
04:00 +10°C° 0 mm 2 mps 763 mmHg 93%
05:00 +10°C° 0 mm 2 mps 764 mmHg 92%
06:00 +13°C° 0 mm 2 mps 763 mmHg 83%
07:00 +15°C° 0 mm 2 mps 763 mmHg 74%
08:00 +17°C° 0 mm 3 mps 763 mmHg 66%
09:00 +19°C° 0 mm 3 mps 763 mmHg 60%
10:00 +20°C° 0 mm 4 mps 763 mmHg 55%
11:00 +21°C° 0 mm 4 mps 763 mmHg 50%
12:00 +22°C° 0 mm 4 mps 763 mmHg 48%
13:00 +22°C° 0 mm 4 mps 762 mmHg 47%
14:00 +23°C° 0 mm 4 mps 762 mmHg 45%
15:00 +24°C° 0 mm 3 mps 761 mmHg 48%
16:00 +24°C° 0 mm 3 mps 761 mmHg 51%
17:00 +24°C° 0 mm 2 mps 761 mmHg 54%
18:00 +21°C° 0 mm 2 mps 761 mmHg 62%
19:00 +19°C° 0 mm 2 mps 761 mmHg 71%
20:00 +17°C° 0 mm 2 mps 761 mmHg 80%
21:00 +16°C° 0 mm 2 mps 761 mmHg 82%
22:00 +15°C° 0 mm 2 mps 761 mmHg 84%
23:00 +14°C° 0 mm 2 mps 761 mmHg 87%
Show more

We Need Your Consent

Meteoprog and our Service Providers may store and access personal data such as cookies, device identifiers or other similar technologies on your device and process such data to personalise content and ads, as well as provide social media features and to analyse the traffic.

  • Store and/or access information on your device

    Cookies, device identifiers or other information can be stored or accessed on your device for the purposes indicated above.

  • Personalised ads and content, ad and content measurement, audience insights, and products development

    Ads and content can be personalised based on a profile. More data can be added to better personalise ads and content. Ad and content performance can be measured. Insights about the audience who saw the ads and content can be derived. Such data can be used to develop or improve user’s experience, systems and software.

By clicking ‘I Agree’ you will allow the use of indicated cookies, device identifiers, web beacons or other similar technologies. Your settings can be changed in the browser on your device.

For certain purposes, legitimate interests may be relied on, rather than consent. You can read more about this in our Privacy and Cookie Policy.